www.pogodaiklimat.ru

Погода и климат >> Архив погоды >> Индонезия >> Медан Полония


ПОГОДА в Медан Полония

  • Прогноз погоды в Медан Полония
  • Монитор погоды в Медан Полония

АРХИВ ПОГОДЫ в Медан Полония

Время (UTC), дата Ветер
(напр.,м/с)
 
Видим.   Явления Облачность Т
(С)
Тd
(С)
f
(%)
Тe
(С)
Тes
(С)
Комфортность P
(гПа)
Po
(гПа)
Тmin
(С)
Tmax
(С)
R
(мм)
R24
(мм)
S
(см)
21 11.06 В 2 6000 м 9/4 500 м
[Sc Ac As Cs]
+26.3 +26.2 99 +39 +39 очень
душно
1008.0 1007.1
00 12.06 ЮВ 4 5000 м мгла 9/3 540 м
[Sc Ac As Cs]
+25.8 +25.7 99 +38 +38 очень
душно
1009.2 1008.4 +25.0
03 12.06 ЮВ 3 9000 м 9/3 540 м
[Sc Ac As Cs]
+28.9 +26.1 85 +44 +48 опасность
перегрева
1010.8 1010.0
06 12.06 В 5 10 км 9/3 500 м
[Cu med, cong Ac As Cs]
+30.8 +25.7 74 +45 +49 опасность
перегрева
1008.3 1007.4
09 12.06 В 5 10 км 9/4 500 м
[Cu med, cong Ac As Cs]
+31.0 +26.2 76 +47 +48 опасность
перегрева
1006.4 1005.6
12 12.06 ЮВ 4 10 км 9/4 500 м
[Cu med, cong Ac As Cs]
+28.2 +23.5 76 +38 +38 очень
душно
1007.9 1007.1 +32.8
15 12.06 Ю 1 10 км зарница 9/5 500 м
[Cb cap Ac As Cs]
+26.4 +24.4 89 +37 +37 очень
душно
1009.9 1009.1
18 12.06 штиль 0 10 км 9/4 500 м
[Sc Ac As Cs]
+25.4 +24.7 96 +36 +36 очень
душно
1009.2 1008.4
21 12.06 Ю 1 7000 м 9/4 500 м
[Sc Ac As Cs]
+25.2 +24.3 95 +35 +35 очень
душно
1008.2 1007.4
00 13.06 В 2 5000 м мгла 8/3 540 м
[Sc Ac As Cs]
+25.0 +24.9 99 +35 +36 очень
душно
1009.6 1008.7 +24.2
03 13.06 В 4 7000 м 8/3 540 м
[Sc Ac As Cs]
+31.1 +26.6 77 +48 +52 опасность
перегрева
1010.3 1009.5
06 13.06 СВ 4 8000 м 8/3 540 м
[Sc Ac As Cs]
+33.3 +27.5 72 +53 +58 опасность
перегрева
1008.2 1007.4
09 13.06 СВ 6 8000 м 8/4 500 м
[Sc Ac As Cs]
+31.9 +27.1 76 +50 +51 опасность
перегрева
1006.4 1005.5
12 13.06 В 3 7000 м 9/4 500 м
[Cu med, cong Ac As Cs]
+29.0 +27.8 93 +47 +47 опасность
перегрева
1008.4 1007.6 +33.7
15 13.06 Ю 5 10 км зарница 9/4 500 м
[Cb cap Ac As Cs]
+26.0 +22.5 81 +34 +34 очень
душно
1012.2 1011.4
18 13.06 Ю 2 8000 м слаб. дождь 9/4 500 м
[Sc Ac As Cs]
+24.9 +23.2 90 +33 +33 очень
душно
1011.0 1010.1 0.7
21 13.06 Ю 2 6000 м слаб. дождь 9/4 500 м
[Sc Ac As Cs]
+24.4 +23.8 96 +33 +33 очень
душно
1008.7 1007.8 0.5
00 14.06 ЮВ 2 7000 м {дождь} 8/3 540 м
[Sc Ac As Cs]
+24.4 +24.1 98 +34 +34 очень
душно
1008.3 1007.5 +24.1 0.3
03 14.06 В 5 10 км 8/3 540 м
[Sc Ac As Cs]
+30.8 +25.7 74 +45 +48 опасность
перегрева
1009.5 1008.6
06 14.06 В 2 10 км 8/3 540 м
[Sc Ac As Cs]
+33.4 +26.1 66 +50 +58 опасность
перегрева
1007.7 1006.7
09 14.06 В 4 10 км 8/3 540 м
[Sc Ac As Cs]
+31.6 +26.8 76 +49 +51 опасность
перегрева
1005.8 1004.8
12 14.06 СВ 3 9000 м зарница 9/4 480 м
[Cb cap Ac As Cs]
+29.4 +27.2 88 +47 +47 опасность
перегрева
1007.4 1006.6 +33.4
15 14.06 З 4 6000 м в посл. час гроза {дождь} 9/5 500 м
[Sc Ac As Cs]
+25.7 +24.3 92 +36 +36 очень
душно
1010.8 1009.9 20
18 14.06 З 5 6000 м {гроза, дождь} 9/4 500 м
[Sc Ac As Cs]
+24.7 +23.5 93 +33 +33 очень
душно
1010.3 1009.5 20
21 14.06 ЮВ 2 6000 м 9/3 500 м
[Sc Ac As Cs]
+23.8 +23.2 96 +32 +32 очень
душно
1009.3 1008.4
00 15.06 ЮВ 2 7000 м 9/3 540 м
[Sc Ac As Cs]
+24.3 +24.0 98 +33 +34 очень
душно
1010.4 1009.6 +23.7 20
03 15.06 В 2 10 км 8/3 540 м
[Sc Ac trans Cs]
+29.2 +25.3 80 +43 +49 опасность
перегрева
1011.5 1010.7
06 15.06 В 2 10 км 9/5 540 м
[Sc Ac As Cs]
+31.0 +26.7 78 +48 +54 опасность
перегрева
1009.5 1008.7
09 15.06 СВ 5 10 км 9/4 600 м
[Sc Ac trans Cs]
+31.1 +26.3 76 +47 +49 опасность
перегрева
1006.7 1005.9
12 15.06 СВ 3 10 км 9/4 540 м
[Sc Ac trans Cs]
+28.5 +26.1 87 +43 +43 опасность
перегрева
1008.2 1007.3 +31.3
15 15.06 штиль 0 6000 м 9/4 540 м
[Sc Ac As Cs]
+27.2 +26.4 95 +41 +41 опасность
перегрева
1010.7 1009.6
18 15.06 Ю 2 6000 м 10/5 500 м
[Sc Ac As Cs]
+26.8 +26.5 98 +41 +41 опасность
перегрева
1010.1 1009.1
21 15.06 ЮЗ 2 8000 м 10/5 500 м
[Sc Ac As Cs]
+25.7 +24.7 94 +36 +36 очень
душно
1008.6 1007.5
00 16.06 Ю 1 4000 м дымка 10/4 540 м
[Sc Ac As Cs]
+25.8 +25.7 99 +38 +38 очень
душно
1009.1 1008.1 +24.3
03 16.06 В 3 10 км 8/3 540 м
[Sc Ac As Cs]
+31.0 +26.2 76 +47 +52 опасность
перегрева
1011.0 1009.9
06 16.06 СВ 4 10 км 8/4 500 м
[Cu med, cong Ac As Cs]
+32.3 +27.1 74 +50 +56 опасность
перегрева
1008.9 1007.3
09 16.06 СВ 4 10 км 8/4 540 м
[Cu med, cong Ac trans Cs]
+31.1 +26.6 77 +48 +50 опасность
перегрева
1007.0 1005.9
12 16.06 Ю 3 2000 м слаб. дождь 10/5 480 м
[Cb cap Ac As Cs]
+24.2 +23.0 93 +32 +32 очень
душно
1009.5 1008.4 +33.1 2
15 16.06 З 2 5000 м в посл. час гроза {дождь} 10/5 480 м
[Cb cap Ac As Cs]
+24.3 +23.7 96 +33 +33 очень
душно
1010.9 1009.9 3
18 16.06 Ю 2 5000 м {гроза, дождь} 10/5 500 м
[Cu Sc Ac As Cs]
+24.2 +23.8 98 +33 +33 очень
душно
1009.2 1008.0 3
21 16.06 штиль 0 5000 м мгла 9/5 500 м
[Sc Ac As Cs]
+23.8 +23.7 99 +32 +32 очень
душно
1008.2 1007.2
00 17.06 штиль 0 3500 м {гроза, дождь} 9/4 500 м
[Sc Ac As Cs]
+24.8 +24.7 99 +35 +35 очень
душно
1009.0 1008.0 +23.2 6
03 17.06 В 2 10 км 6/3 540 м
[Sc Ac As Cs]
+30.4 +25.4 75 +45 +52 опасность
перегрева
1010.1 1009.1
06 17.06 С 6 10 км 6/3 540 м
[Cu hum As trans Cs]
+31.6 +26.4 74 +48 +53 опасность
перегрева
1009.3 1008.1
09 17.06 С 3 10 км 8/4 500 м
[Cb cap As trans Cs]
+31.0 +23.9 66 +43 +45 опасность
перегрева
1007.7 1006.7
12 17.06 Ю 3 9000 м 9/5 500 м
[Cb cap As op Cs]
+27.6 +24.6 84 +39 +39 очень
душно
1009.0 1007.9 +31.9
15 17.06 ЮЗ 2 10 км 9/4 500 м
[Sc Ac As Cs]
+27.1 +24.5 86 +38 +38 очень
душно
1010.6 1009.5
18 17.06 В 2 6000 м 9/4 500 м
[Sc Ac As Cs]
+25.3 +25.2 99 +36 +36 очень
душно
1009.8 1008.7
21 17.06 СЗ 2 4000 м дымка 9/4 500 м
[Sc Ac As Cs]
+25.6 +25.5 99 +37 +37 очень
душно
1008.7 1007.6
00 18.06 Ю 2 2500 м дымка 9/4 540 м
[Sc Ac As Cs]
+25.7 +25.6 99 +37 +38 очень
душно
1009.5 1008.5 +24.8
03 18.06 З 1 8000 м 9/4 540 м
[Sc Ac As Cs]
+29.1 +26.3 85 +44 +50 опасность
перегрева
1010.3 1009.3
06 18.06 С 5 10 км 8/3 540 м
[Cu hum Ac As Cs]
+32.2 +26.4 72 +49 +54 опасность
перегрева
1008.8 1007.8
09 18.06 СВ 4 10 км 6/3 540 м
[Cu med, cong Ac trans Cs]
+31.2 +25.3 71 +45 +48 опасность
перегрева
1006.8 1005.7
12 18.06 ЮВ 2 10 км 10/5 500 м
[Cb cap Ac As Cs]
+28.9 +26.8 88 +45 +45 опасность
перегрева
1008.4 1007.4 +32.3
15 18.06 ЮЗ 2 10 км 9/4 540 м
[Sc Ac As Cs]
+26.1 +23.3 85 +35 +35 очень
душно
1009.6 1008.5
18 18.06 З 2 8000 м 10/5 500 м
[Cb cap Ac As Cs]
+26.1 +24.8 93 +37 +37 очень
душно
1009.2 1008.0

 

Местоположение метеостанции Медан Полония (Индонезия): широта 3.57 долгота 98.68 высота над уровнем моря 25 м.

В архиве по умолчанию представлена погода в Медан Полония за последнюю неделю. Архивные данные за месяц целиком и за предыдущие месяцы, начиная с января 2011 года, Вы можете получить, выбрав интересующий диапазон дат из раскрывающегося списка и нажав кнопку "Ввод!".


*Определитесь, кто Вы:
робот инопланетянин человек

Внимание! Время в таблицах - всемирное. Для получения местного времени необходимо прибавить поправку, которая равна 7 ч.

Смотрите также архив погоды в соседних городах и на ближайших метеорологических станциях:

Погода в Белаване (Индонезия) (26 км)
Погода в Сиболге (Индонезия) (226 км)
Погода в Ситаване (Малайзия) (236 км)
Погода в Лхоксёмаве (Индонезия) (247 км)
Погода в Гунунгситоли (Индонезия) (258 км)
Погода в Пенанге (Малайзия) (260 км)
Погода на Авиабазе Баттерворт (Малайзия) (283 км)
Погода в Ипохе (Малайзия) (291 км)
Погода в Меулабохе (Индонезия) (294 км)
Погода на Нагорье Кэмерон (Малайзия) (315 км)

Пояснения к столбцам:

Ветер - указаны скорость ветра в м/с - средняя за 10 мин, порывы в срок и между сроками (в фигурных скобках) и направление, откуда дует ветер: С - северный, СВ - северо-восточный, В - восточный, ЮВ - юго-восточный, Ю - южный, ЮЗ - юго-западный, З - западный, СЗ - северо-западный.
Видимость - горизонтальная дальность видимости в метрах или километрах. При видимости от 1 до 10 км при отсутствии осадков обычно наблюдается дымка, при ухудшении видимости до 1 км и менее - туман. В сухую погоду видимость может ухудшаться дымом, пылью или мглою.
Явления - указаны атмосферные явления, наблюдавшиеся в срок или в последний час перед сроком; фигурными скобками обозначены явления, наблюдавшиеся между сроками (за 1-3 часа до срока); квадратными скобками обозначены град или гололедные отложения с указанием их диаметра в мм.
Облачность - указаны через наклонную черту общая и нижняя облачность в баллах и высота нижней границы облаков в метрах; квадратными скобками обозначены формы облаков: Ci - перистые, Cs - перисто-слоистые, Cc - перисто-кучевые, Ac - высококучевые, As - высокослоистые, Sc - слоисто-кучевые, Ns - слоисто-дождевые, Cu - кучевые, Cb - кучево-дождевые. Подробнее классификацию облаков см. в Атласе облаков (PDF).
T - Температура воздуха - температура, измеренная на высоте 2 м над землей.
Td - Температура точки росы - температура, при понижении до которой содержащийся в воздухе водяной пар достигнет насыщения.
f - Относительная влажность воздуха - влажноcть воздуха, измеренная на высоте 2 м над землей.
Te - Эффективная температура - температура, которую ощущает одетый по сезону человек в тени. Характеристика душности погоды. При расчете учитывается влияние влажности воздуха и скорости ветра на теплоощущения человека.
Tes - Эффективная температура на солнце - температура, которую ощущает человек, с поправкой на солнечный нагрев. Характеристика знойности погоды. Зависит от высоты солнца над горизонтом, облачности и скорости ветра. Ночью, в пасмурную погоду, а также при ветре 12 м/с и более поправка равна нулю.
P - Атмосферное давление - приведенное к уровню моря атмосферное давление.
Po - Атмосферное давление - измеренное на уровне метеостанции атмосферное давление.
Tmin - Минимальная температура - минимум температуры воздуха на высоте 2 м над землей.
Tmax - Максимальная температура - максимум температуры воздуха на высоте 2 м над землей.
R - Количество осадков - Количество выпавших осадков за период времени, мм. При наведении курсора мыши на число - период времени, за который выпало указанное количество осадков.
R24 - Количество осадков - Количество выпавших осадков за 24 часа, мм.
S - Снежный покров - Высота снежного покрова, см. При наведении курсора мыши на число - состояние снежного покрова и степень покрытия местности в баллах.